Location: Darlington Observatory
(36.4817°N, 105.8156°W)
Time: 00:41:09
(UTC-07:00)

Daily predictions for brighter satellites

Satellite Brightness Start Highest point End
(mag) Time Altitude Azimuth Time Altitude Azimuth Time Altitude Azimuth
USA 234 3.8 03:41:31 10° NE 03:47:47 47° SE 03:48:26 46° SE
Cosmos 1656 Rocket 4.5 03:51:34 49° NE 03:51:34 49° NE 03:55:51 10° NNE
ATLAS 3B R/B 4.0 03:54:41 18° S 03:59:47 39° ESE 04:06:32 10° NE
Cosmos 2369 Rocket 4.5 04:08:19 12° NNW 04:08:19 12° NNW 04:08:58 10° N
Cosmos 2219 4.3 04:04:41 10° N 04:10:02 41° ENE 04:15:19 10° SE
Okean-O 4.1 04:06:42 10° NNE 04:10:47 35° E 04:12:15 28° SE
Meteor 2-10 Rocket 4.1 04:12:23 50° NNE 04:12:23 50° NNE 04:16:10 10° NNE
Cosmos 1452 Rocket 4.3 04:13:33 42° N 04:13:33 42° N 04:17:03 10° NNE
Meteor 1-26 Rocket 4.2 04:12:42 80° ENE 04:12:42 80° ENE 04:18:06 10° N
Delta 2 Rocket 4.4 04:16:35 48° ESE 04:16:35 48° ESE 04:20:22 10° E
Meteor 1-31 Rocket 4.2 04:14:10 10° NNE 04:17:22 36° E 04:17:22 36° E
Okean 2 Rocket 4.4 04:13:41 10° N 04:17:48 38° E 04:21:54 10° SSE
Cosmos 1244 Rocket 4.4 04:15:25 10° N 04:21:39 83° E 04:27:48 10° S
ATLAS 5 CENTAUR R/B 4.1 04:33:02 13° NNW 04:33:02 13° NNW 04:34:16 10° N
Cosmos 614 Rocket 4.5 04:28:21 10° N 04:33:24 58° ENE 04:38:28 10° SSE
Cosmos 1140 Rocket 3.5 04:28:30 10° NNW 04:33:45 80° ENE 04:38:59 10° SSE
Cosmos 1943 Rocket 3.8 04:38:13 19° NNW 04:38:13 19° NNW 04:40:25 10° N
ATLAS CENTAUR R/B 4.0 04:37:39 42° W 04:39:42 49° SW 04:57:18 10° SSE
Lacrosse 5 3.8 04:43:56 16° NNW 04:43:56 16° NNW 04:46:38 10° N
ADEOS II 2.8 04:39:20 10° N 04:43:03 36° NW 04:43:03 36° NW
S3M 3.9 04:39:22 10° S 04:45:44 89° W 04:52:02 10° N
CZ-4C R/B 2.7 04:45:55 38° NW 04:45:55 38° NW 04:51:20 10° NNE
Okean 1-7 3.5 04:51:29 43° NNW 04:51:29 43° NNW 04:54:39 10° N
Cosmos 1553 Rocket 3.9 04:44:54 10° S 04:51:05 78° W 04:57:24 10° N
USA 81 4.3 04:52:49 10° S 04:58:03 72° E 05:03:18 10° N
CZ-4B R/B 4.1 04:56:17 10° N 05:00:43 29° WNW 05:00:43 29° WNW
Cosmos 2221 Rocket 4.5 05:02:17 32° NW 05:02:17 32° NW 05:05:26 10° NNW
Feng Yun 1-1 Rocket 4.3 04:57:26 10° N 05:03:18 69° WNW 05:09:11 10° SSW
COSMOS 2455 4.2 05:04:24 10° S 05:09:57 40° ESE 05:15:32 10° NE
Gblst 52 Del rocket 4.2 05:07:37 24° SW 05:11:10 88° NW 05:17:26 10° NE
Cosmos 1850 Rocket 3.9 05:10:39 10° NNW 05:15:57 67° WSW 05:21:10 10° S
Cosmos 1606 2.6 05:12:18 10° SSW 05:16:10 72° W 05:20:04 10° N
Meteor 1-20 Rocket 4.1 05:10:37 10° NNW 05:16:14 66° W 05:21:42 10° S
Lacrosse 5 rocket 2.7 05:16:11 10° NNW 05:19:27 31° NE 05:22:41 10° ESE
Meteor 1-27 Rocket 4.1 05:16:36 10° S 05:22:20 71° E 05:28:12 10° NNE
Ariane Rocket 4.0 05:18:21 10° NNE 05:23:18 50° E 05:28:12 10° S
Cosmos 1709 Rocket 4.5 05:19:29 10° N 05:25:34 64° E 05:31:39 10° SSE
Cosmos 2369 3.8 05:22:29 10° SSW 05:28:07 80° ESE 05:33:47 10° NNE
USA 234 3.6 05:24:32 10° NE 05:30:43 46° NW 05:35:49 15° WSW
SKYMED 2 3.5 05:27:54 10° S 05:32:13 75° WSW 05:36:34 10° NNW
USA 238 DEB 3.7 05:25:37 10° SSW 05:32:38 83° WNW 05:39:42 10° NNE
GEOS 3 Rocket 3.9 05:27:54 10° S 05:32:42 42° WSW 05:37:32 10° NW
USA 238 3.7 05:25:42 10° SSW 05:32:44 83° WNW 05:39:48 10° NNE
Cosmos 1782 3.5 05:30:43 10° SW 05:34:14 31° WNW 05:37:48 10° NNW
Cosmos 2297 Rocket 3.2 05:29:08 10° N 05:34:36 49° ENE 05:40:02 10° SE
Cosmos 1633 2.5 05:36:05 10° N 05:39:43 90° WNW 05:43:18 10° S
NOAA 6 4.3 05:35:20 10° N 05:40:12 43° WNW 05:45:02 10° SW
Cosmos 1378 Rocket 4.2 05:36:35 10° S 05:40:52 58° E 05:45:08 10° NNE
Cosmos 1674 Rocket 3.5 05:36:43 10° SSW 05:41:04 67° W 05:45:31 10° N
Cosmos 1331 Rocket 3.9 05:36:15 10° SSW 05:41:24 74° WNW 05:46:38 10° NNE
Cosmos 2278 3.6 05:38:06 10° SSW 05:43:44 72° WNW 05:49:24 10° NNE
Cosmos 2315 Rocket 4.0 05:37:45 10° S 05:44:07 83° W 05:50:31 10° N
Cosmos 1745 Rocket 4.4 05:38:34 10° NNW 05:44:10 38° W 05:49:46 10° SSW
Tiangong 1 2.6 05:43:31 12° NW 05:45:38 25° N 05:48:08 10° ENE
Okean-O 4.0 05:43:55 10° NNW 05:46:59 19° WNW 05:49:50 11° WSW
DMSP B5D1-3 4.5 05:43:43 10° S 05:48:47 71° WSW 05:53:53 10° NNW
Meteor 2-6 Rocket 4.5 05:44:02 10° SSW 05:49:04 41° WNW 05:54:12 10° N
ATLAS 3B R/B 3.3 05:43:18 10° WSW 05:50:27 44° NW 05:57:23 10° NNE
IDEFIX/ARIANE 42P 3.6 05:47:46 10° NNE 05:52:52 52° E 05:57:54 10° S
Cosmos 1346 Rocket 3.8 05:49:48 10° S 05:53:45 52° E 05:57:41 10° NNE
Cosmos 2219 4.2 05:49:27 10° NW 05:53:51 24° W 05:58:15 10° SSW
Cosmos 1656 3.8 05:48:49 10° SSW 05:54:31 88° ESE 06:00:15 10° NNE
Cosmos 2227 Rocket 2.2 05:49:35 10° NNW 05:55:17 84° WSW 06:00:57 10° SSE
CZ-2C R/B 3.4 05:51:12 10° NNE 05:56:05 54° E 06:01:05 10° S
Cosmos 1110 Rocket 4.3 05:52:35 10° SW 05:57:30 45° WNW 06:02:28 10° N
Delta 2 Rocket 3.8 05:53:38 12° W 05:58:05 80° S 06:03:27 10° E
NOSS 3-2 (C) 4.2 05:57:05 10° SSW 06:02:53 57° ESE 06:09:11 10° NE
Okean 1 Rocket 3.0 06:02:18 10° N 06:06:42 73° W 06:11:01 10° S
